www.pogodaiklimat.ru

Погода и климат >> Архив погоды >> Италия >> Турин Венария


ПОГОДА в Турине Венария

  • Прогноз погоды в Турине Венария
  • Монитор погоды в Турине Венария

АРХИВ ПОГОДЫ в Турине Венария

Время (UTC), дата Ветер
(напр.,м/с)
 
Видим.   Явления Облачность Т
(С)
Тd
(С)
f
(%)
Тe
(С)
Тes
(С)
Комфортность P
(гПа)
Po
(гПа)
Тmin
(С)
Tmax
(С)
R
(мм)
R24
(мм)
S
(см)
13 14.07 В 2 н/о н/о +25.8 +11.9 42 +27 +27 жарко 1007.1 979.7
14 14.07 С 2 н/о н/о +26.4 +11.3 39 +28 +28 жарко 1006.5 979.2
15 14.07 СВ 3 н/о н/о +26.4 +11.7 40 +28 +28 жарко 1006.0 978.7
16 14.07 В 3 н/о н/о +25.2 +11.7 43 +27 +27 жарко 1005.9 978.5
17 14.07 В 3 н/о н/о +24.6 +12.2 46 +26 +26 жарко 1005.7 978.3
18 14.07 СВ 2 н/о н/о +24.3 +12.8 49 +26 +26 жарко 1005.7 978.2 +27.2
19 14.07 СЗ 1 н/о н/о +23.3 +13.7 55 +27 +27 душно 1006.4 978.8
20 14.07 Ю 4 н/о н/о +19.4 +15.8 80 +21 +21 комфорт 1007.3 979.3
21 14.07 ЮЗ 4 н/о н/о +17.9 +17.0 94 +18 +18 1007.8 979.7
22 14.07 З 2 н/о н/о +17.6 +17.5 99 +18 +18 1007.7 979.6
23 14.07 Ю 2 н/о н/о +16.7 +16.0 96 +17 +17 1008.2 979.9
00 15.07 С 2 н/о н/о +16.0 +15.9 99 +16 +16 1008.1 979.8 1
01 15.07 С 3 н/о н/о +16.0 +15.9 99 +16 +16 1007.2 978.9
02 15.07 СВ 3 н/о н/о +15.9 +15.8 99 +15 +15 1007.2 978.9
03 15.07 СВ 4 н/о н/о +15.2 +15.1 99 +14 +14 1007.1 978.7
04 15.07 С 3 н/о н/о +13.7 +13.6 99 +12 +12 1007.8 979.3
05 15.07 С 3 н/о н/о +13.5 +13.4 99 +12 +12 1008.3 979.7
06 15.07 СВ 3 н/о н/о +12.6 +12.6 100 +11 +11 1009.5 980.8 +12.6 5 405
07 15.07 СЗ 3 н/о н/о +12.4 +12.4 100 +11 +11 1010.4 981.7
08 15.07 З 2 н/о н/о +13.0 +12.9 99 +12 +12 1010.1 981.4
09 15.07 СЗ 1 н/о н/о +13.1 +13.0 99 +13 +13 1010.6 981.9
10 15.07 СЗ 1 н/о н/о +13.1 +13.0 99 +13 +13 1010.5 981.8
11 15.07 С 2 н/о н/о +13.8 +13.7 99 +13 +13 1011.1 982.5
12 15.07 СЗ 2 н/о н/о +14.3 +14.2 99 +14 +14 1011.3 982.7 4
13 15.07 С 2 н/о н/о +14.8 +14.6 99 +15 +15 1011.8 983.3
14 15.07 СЗ 2 н/о н/о +15.3 +15.1 99 +15 +15 1012.2 983.7
15 15.07 З 2 н/о н/о +16.6 +15.9 96 +17 +17 1011.9 983.6
16 15.07 З 3 н/о н/о +17.4 +15.3 87 +18 +18 1011.6 983.3
17 15.07 З 3 н/о н/о +18.4 +15.0 81 +19 +19 1010.7 982.6
18 15.07 З 2 н/о н/о +19.7 +14.0 70 +22 +22 комфорт 1010.7 982.6 +20.2 8
19 15.07 ЮЗ 1 н/о н/о +17.9 +12.9 73 +19 +19 1011.0 982.8
20 15.07 СЗ 1 н/о н/о +14.5 +11.1 80 +16 +16 1012.2 983.6
21 15.07 З 2 н/о н/о +13.6 +12.6 94 +13 +13 1012.9 984.2
22 15.07 СЗ 1 н/о н/о +12.1 +11.2 94 +12 +12 1013.4 984.6
23 15.07 СЗ 1 н/о н/о +11.9 +11.4 97 +12 +12 1013.6 984.7
00 16.07 З 2 н/о н/о +10.5 +9.9 96 +9 +9 1013.6 984.6 2
01 16.07 ЮЗ 1 н/о н/о +10.3 +10.1 99 +11 +11 1013.4 984.4
02 16.07 С 1 н/о н/о +10.6 +10.6 100 +11 +11 1013.4 984.4
03 16.07 Ю 1 н/о н/о +9.8 +9.8 100 +10 +10 1013.3 984.2
04 16.07 З 1 н/о н/о +9.7 +9.7 100 +10 +10 1013.1 984.0
05 16.07 СЗ 1 н/о н/о +10.0 +10.0 100 +10 +10 1013.3 984.2
06 16.07 штиль 0 н/о н/о +12.2 +12.2 100 +11 +11 1013.2 984.4 +8.6 4 0
07 16.07 З 1 н/о н/о +15.2 +15.0 99 +16 +16 1013.0 984.5
08 16.07 В 1 н/о н/о +18.4 +15.0 81 +21 +21 комфорт 1012.9 984.7
09 16.07 В 2 н/о н/о +20.8 +12.4 59 +24 +24 комфорт 1012.6 984.6
10 16.07 ЮВ 1 н/о н/о +22.6 +12.8 54 +25 +25 комфорт 1012.2 984.4
11 16.07 Ю 1 н/о н/о +23.9 +12.2 48 +26 +26 жарко 1011.8 984.1
12 16.07 Ю 2 н/о н/о +24.8 +12.0 45 +26 +26 жарко 1011.5 983.9 2
13 16.07 Ю 2 н/о н/о +25.6 +13.0 46 +28 +28 жарко 1011.1 983.6
14 16.07 ЮЗ 2 н/о н/о +26.3 +13.0 44 +28 +28 жарко 1010.9 983.5
15 16.07 ЮЗ 3 н/о н/о +26.5 +13.2 44 +28 +28 жарко 1010.4 983.0
16 16.07 З 2 н/о н/о +27.1 +13.7 44 +29 +29 жарко 1010.0 982.6
17 16.07 З 3 н/о н/о +26.5 +13.5 45 +29 +29 жарко 1009.8 982.4
18 16.07 ЮЗ 2 н/о н/о +24.7 +14.4 53 +27 +27 жарко 1010.1 982.5 +27.5 7
19 16.07 ЮЗ 1 н/о н/о +22.2 +14.0 60 +25 +25 комфорт 1010.4 982.6
20 16.07 СЗ 1 н/о н/о +19.8 +13.6 67 +23 +23 комфорт 1011.1 983.0
21 16.07 СЗ 1 н/о н/о +18.3 +15.3 83 +20 +20 1011.5 983.3
22 16.07 З 1 н/о н/о +16.0 +13.6 86 +17 +17 1011.8 983.4
23 16.07 СЗ 1 н/о н/о +15.6 +14.1 91 +17 +17 1012.1 983.6
00 17.07 СЗ 1 н/о н/о +14.4 +13.6 95 +15 +15 1012.4 983.8
01 17.07 СЗ 2 н/о н/о +14.4 +13.9 97 +14 +14 1012.2 983.6
02 17.07 СЗ 2 н/о н/о +13.8 +13.4 97 +13 +13 1012.0 983.4
03 17.07 З 2 н/о н/о +13.8 +13.6 99 +13 +13 1011.9 983.3
04 17.07 СЗ 1 н/о н/о +14.0 +13.8 99 +14 +14 1011.9 983.3
05 17.07 СЗ 2 н/о н/о +14.0 +13.8 99 +14 +14 1012.0 983.4
06 17.07 СЗ 1 н/о н/о +16.2 +16.1 99 +18 +18 1011.9 983.5 +13.4 201
07 17.07 СЗ 1 н/о н/о +19.1 +17.2 89 +22 +22 комфорт 1011.5 983.4
08 17.07 В 2 н/о н/о +21.7 +15.0 66 +25 +25 комфорт 1011.3 983.4
09 17.07 С 2 н/о н/о +22.7 +14.7 61 +26 +26 жарко 1010.8 983.1
10 17.07 С 2 н/о н/о +23.9 +15.3 59 +27 +27 жарко 1010.3 982.7
11 17.07 СЗ 2 н/о н/о +25.2 +13.7 49 +27 +27 жарко 1010.0 982.5
12 17.07 С 2 н/о н/о +26.3 +15.9 53 +30 +30 душно 1009.3 981.9
13 17.07 СВ 2 н/о н/о +26.5 +15.8 52 +30 +30 душно 1008.7 981.3
14 17.07 СВ 3 н/о н/о +26.9 +15.2 49 +30 +30 душно 1008.2 980.9
15 17.07 СВ 2 н/о н/о +27.2 +14.2 45 +29 +29 жарко 1007.9 980.6
16 17.07 ЮВ 2 н/о н/о +27.2 +14.2 45 +29 +29 жарко 1007.3 980.1
17 17.07 СВ 2 н/о н/о +27.1 +13.4 43 +29 +29 жарко 1007.1 979.8
18 17.07 В 2 н/о н/о +26.2 +12.9 44 +28 +28 жарко 1007.0 979.7 +27.7
19 17.07 В 2 н/о н/о +24.8 +12.4 46 +27 +27 жарко 1007.2 979.7
20 17.07 С 1 н/о н/о +22.1 +12.8 56 +25 +25 комфорт 1008.0 980.2
21 17.07 СЗ 1 н/о н/о +19.2 +13.5 70 +22 +22 комфорт 1008.4 980.4
22 17.07 СЗ 1 н/о н/о +17.1 +14.3 84 +18 +18 1008.7 980.5
23 17.07 СВ 1 н/о н/о +18.0 +16.1 89 +20 +20 1008.9 980.7
00 18.07 СЗ 1 н/о н/о +17.1 +15.6 91 +18 +18 1008.9 980.7
01 18.07 З 1 н/о н/о +15.1 +13.9 93 +16 +16 1008.8 980.4
02 18.07 СЗ 1 н/о н/о +15.6 +14.9 96 +16 +16 1008.9 980.5
03 18.07 З 1 н/о н/о +14.3 +13.8 97 +15 +15 1009.0 980.5
04 18.07 З 1 н/о н/о +14.2 +14.1 99 +14 +14 1009.1 980.6
06 18.07 З 1 н/о н/о +16.4 +16.3 99 +18 +18 1009.6 981.3 +13.9 601
07 18.07 СЗ 1 н/о н/о +19.3 +18.8 97 +23 +23 комфорт 1009.6 981.6
08 18.07 СВ 2 н/о н/о +22.1 +17.0 73 +27 +27 душно 1009.6 981.8
09 18.07 СВ 2 н/о н/о +23.6 +14.5 57 +26 +26 жарко 1009.6 982.0
10 18.07 СВ 3 н/о н/о +23.8 +16.0 62 +27 +27 жарко 1009.9 982.3
11 18.07 В 3 н/о н/о +24.5 +15.9 59 +28 +28 душно 1009.8 982.2
12 18.07 ЮВ 2 н/о н/о +26.0 +16.2 55 +29 +29 душно 1009.3 981.9
13 18.07 В 2 н/о н/о +25.6 +16.7 58 +29 +29 душно 1009.0 981.6
14 18.07 С 1 н/о н/о +26.1 +16.0 54 +29 +29 жарко 1008.8 981.4
15 18.07 В 2 н/о н/о +26.7 +16.0 52 +30 +30 душно 1008.4 981.1
16 18.07 В 2 н/о н/о +26.3 +15.6 52 +29 +29 жарко 1008.3 980.9
17 18.07 СВ 2 н/о н/о +25.8 +15.1 52 +29 +29 душно 1008.5 981.1
18 18.07 В 3 н/о н/о +24.7 +14.4 53 +27 +27 жарко 1009.2 981.7 +27.1
19 18.07 В 2 н/о н/о +23.8 +14.1 55 +26 +26 жарко 1009.8 982.2
20 18.07 СЗ 2 н/о н/о +22.4 +14.4 61 +26 +26 жарко 1010.6 982.8
21 18.07 З 1 н/о н/о +19.1 +14.3 74 +22 +22 комфорт 1011.4 983.3
22 18.07 З 1 н/о н/о +18.2 +15.0 82 +20 +20 1011.8 983.6
23 18.07 СЗ 1 н/о н/о +17.9 +16.2 90 +19 +19 1012.2 984.0
00 19.07 СЗ 1 н/о н/о +16.9 +15.4 91 +18 +18 1012.8 984.4
01 19.07 СЗ 2 н/о н/о +16.7 +15.8 94 +17 +17 1012.9 984.5
02 19.07 З 1 н/о н/о +15.7 +15.2 97 +16 +16 1013.1 984.6
03 19.07 СЗ 1 н/о н/о +15.9 +15.5 97 +17 +17 1013.3 984.8
04 19.07 СЗ 1 н/о н/о +16.2 +16.1 99 +18 +18 1013.3 984.9
05 19.07 СЗ 1 н/о н/о +15.2 +15.1 99 +16 +16 1013.8 985.3
06 19.07 СЗ 1 н/о н/о +17.0 +16.9 99 +18 +18 1014.0 985.6 +15.0 101
07 19.07 СЗ 1 н/о н/о +19.1 +19.0 99 +22 +22 комфорт 1014.3 986.1
08 19.07 СВ 2 н/о н/о +21.3 +18.0 81 +25 +25 комфорт 1014.3 986.3
09 19.07 В 2 н/о н/о +22.9 +18.4 76 +29 +29 очень
душно
1014.1 986.3
10 19.07 СВ 2 н/о н/о +23.9 +17.1 66 +28 +28 душно 1014.0 986.3
11 19.07 СВ 2 н/о н/о +24.8 +15.9 58 +28 +28 жарко 1013.6 986.0
12 19.07 СВ 3 н/о н/о +25.1 +15.6 56 +28 +28 жарко 1013.2 985.6
13 19.07 В 2 н/о н/о +25.9 +16.9 58 +30 +30 душно 1012.8 985.3
14 19.07 СВ 2 н/о н/о +26.5 +17.2 57 +31 +31 душно 1012.5 985.1
15 19.07 В 2 н/о н/о +26.5 +16.7 55 +30 +30 душно 1012.3 984.8
16 19.07 В 1 н/о н/о +27.4 +17.5 55 +32 +32 очень
душно
1011.9 984.6
17 19.07 СЗ 1 н/о н/о +27.1 +17.5 56 +31 +31 душно 1011.8 984.4
18 19.07 С 1 н/о н/о +26.7 +17.4 57 +31 +31 душно 1011.7 984.3 +28.0
19 19.07 С 1 н/о н/о +25.4 +17.5 62 +30 +30 душно 1012.1 984.6
20 19.07 С 1 н/о н/о +23.1 +18.1 73 +29 +29 очень
душно
1012.9 985.1
21 19.07 СЗ 2 н/о н/о +21.1 +19.0 88 +25 +25 комфорт 1013.7 985.7
22 19.07 СЗ 1 н/о н/о +19.5 +17.8 90 +23 +23 комфорт 1014.3 986.1
23 19.07 штиль 0 н/о н/о +19.4 +18.5 95 +22 +22 комфорт 1014.6 986.4
00 20.07 З 1 н/о н/о +19.5 +19.1 98 +24 +24 комфорт 1014.6 986.4
01 20.07 С 1 н/о н/о +20.2 +19.7 97 +25 +25 комфорт 1014.3 986.2
02 20.07 штиль 0 н/о н/о +19.1 +18.6 97 +21 +21 комфорт 1014.4 986.2
03 20.07 С 1 н/о н/о +19.4 +19.2 99 +23 +23 комфорт 1014.6 986.4
04 20.07 З 1 н/о н/о +18.8 +18.7 99 +21 +21 комфорт 1014.8 986.6
05 20.07 СЗ 1 н/о н/о +18.9 +18.8 99 +22 +22 комфорт 1014.9 986.7
06 20.07 СВ 1 н/о н/о +20.4 +20.3 99 +26 +26 душно 1015.1 987.0 +18.5 401
07 20.07 С 2 н/о н/о +21.9 +19.6 87 +27 +27 душно 1015.3 987.4
08 20.07 СВ 2 н/о н/о +22.8 +18.1 75 +28 +28 душно 1015.5 987.6
09 20.07 В 2 н/о н/о +24.4 +18.5 70 +29 +29 душно 1015.5 987.8
10 20.07 В 2 н/о н/о +25.6 +16.4 57 +29 +29 душно 1015.2 987.6
11 20.07 В 3 н/о н/о +26.5 +16.9 56 +30 +30 душно 1015.2 987.7
12 20.07 С 2 н/о н/о +26.8 +17.2 56 +31 +31 душно 1015.0 987.5
13 20.07 СВ 3 н/о н/о +27.3 +17.1 54 +31 +31 душно 1014.8 987.4
14 20.07 В 2 н/о н/о +28.1 +16.6 50 +32 +32 душно 1014.5 987.1
15 20.07 СВ 2 н/о н/о +27.6 +17.7 55 +32 +32 очень
душно
1014.4 987.0
16 20.07 С 2 н/о н/о +27.1 +18.1 58 +32 +32 очень
душно
1014.2 986.8
17 20.07 СВ 2 н/о н/о +27.5 +17.9 56 +32 +32 очень
душно
1014.1 986.7
18 20.07 СВ 1 н/о н/о +26.7 +17.7 58 +31 +31 душно 1014.2 986.7 +28.7
19 20.07 С 1 н/о н/о +25.9 +17.7 61 +30 +30 душно 1014.7 987.1
20 20.07 С 1 н/о н/о +24.1 +20.0 78 +30 +30 очень
душно
1015.4 987.6
21 20.07 СЗ 1 н/о н/о +22.6 +19.7 84 +29 +29 очень
душно
1015.9 988.0
22 20.07 СЗ 1 н/о н/о +21.1 +19.3 89 +26 +26 душно 1016.0 987.9
23 20.07 ЮЗ 1 н/о н/о +20.3 +19.2 93 +26 +26 душно 1016.3 988.2
00 21.07 СЗ 1 н/о н/о +19.8 +18.7 93 +24 +24 комфорт 1016.8 988.6
01 21.07 штиль 0 н/о н/о +19.0 +18.6 98 +21 +21 комфорт 1016.6 988.3
02 21.07 СЗ 1 н/о н/о +18.5 +18.4 99 +21 +21 комфорт 1016.5 988.2
03 21.07 СЗ 1 н/о н/о +18.1 +18.0 99 +20 +20 1016.9 988.5
04 21.07 СЗ 1 н/о н/о +18.5 +18.4 99 +21 +21 комфорт 1017.0 988.7
05 21.07 СЗ 2 н/о н/о +18.4 +18.3 99 +20 +20 1017.3 989.0
06 21.07 З 1 н/о н/о +19.4 +19.3 99 +23 +23 комфорт 1017.4 989.2 +17.7 1
07 21.07 штиль 0 н/о н/о +22.6 +22.4 99 +31 +31 очень
душно
1017.1 989.2
08 21.07 Ю 1 н/о н/о +24.2 +20.9 82 +30 +30 очень
душно
1016.9 989.1
09 21.07 В 2 н/о н/о +25.4 +18.3 65 +30 +30 душно 1016.9 989.2
10 21.07 В 2 н/о н/о +26.6 +18.4 61 +31 +31 душно 1016.8 989.2
11 21.07 С 2 н/о н/о +27.6 +19.1 60 +33 +33 очень
душно
1016.6 989.1
12 21.07 З 2 н/о н/о +27.9 +18.8 58 +33 +33 очень
душно
1016.2 988.8

 

Местоположение метеостанции Турин Венария (Италия): широта 45.12 долгота 7.62 высота над уровнем моря 276 м.

В архиве по умолчанию представлена погода в Турине Венария за последнюю неделю. Архивные данные за месяц целиком и за предыдущие месяцы, начиная с января 2011 года, Вы можете получить, выбрав интересующий диапазон дат из раскрывающегося списка и нажав кнопку "Ввод!".


*Определитесь, кто Вы:
робот инопланетянин человек

Внимание! Время в таблицах - всемирное. Для получения местного времени необходимо прибавить поправку, которая равна 1 ч.

Смотрите также архив погоды в соседних городах и на ближайших метеорологических станциях:

Погода в Турине (Италия) (11 км)
Погода в Турине Брик Делла Крос (Италия) (13 км)
Погода в Казале-Монферрато (Италия) (65 км)
Погода в Валле-д`Аосте (Италия) (72 км)
Погода в Бриансоне (Франция) (79 км)
Погода в Мондови (Италия) (84 км)
Погода в Бур-сен-Морисе (Франция) (87 км)
Погода на Пьян Роза (Италия) (90 км)
Погода в Большом Сен-Бернаре (Швейцария) (90 км)
Погода в Новара (Италия) (93 км)

Пояснения к столбцам:

Ветер - указаны скорость ветра в м/с - средняя за 10 мин, порывы в срок и между сроками (в фигурных скобках) и направление, откуда дует ветер: С - северный, СВ - северо-восточный, В - восточный, ЮВ - юго-восточный, Ю - южный, ЮЗ - юго-западный, З - западный, СЗ - северо-западный.
Видимость - горизонтальная дальность видимости в метрах или километрах. При видимости от 1 до 10 км при отсутствии осадков обычно наблюдается дымка, при ухудшении видимости до 1 км и менее - туман. В сухую погоду видимость может ухудшаться дымом, пылью или мглою.
Явления - указаны атмосферные явления, наблюдавшиеся в срок или в последний час перед сроком; фигурными скобками обозначены явления, наблюдавшиеся между сроками (за 1-3 часа до срока); квадратными скобками обозначены град или гололедные отложения с указанием их диаметра в мм.
Облачность - указаны через наклонную черту общая и нижняя облачность в баллах и высота нижней границы облаков в метрах; квадратными скобками обозначены формы облаков: Ci - перистые, Cs - перисто-слоистые, Cc - перисто-кучевые, Ac - высококучевые, As - высокослоистые, Sc - слоисто-кучевые, Ns - слоисто-дождевые, Cu - кучевые, Cb - кучево-дождевые. Подробнее классификацию облаков см. в Атласе облаков (PDF).
T - Температура воздуха - температура, измеренная на высоте 2 м над землей.
Td - Температура точки росы - температура, при понижении до которой содержащийся в воздухе водяной пар достигнет насыщения.
f - Относительная влажность воздуха - влажноcть воздуха, измеренная на высоте 2 м над землей.
Te - Эффективная температура - температура, которую ощущает одетый по сезону человек в тени. Характеристика душности погоды. При расчете учитывается влияние влажности воздуха и скорости ветра на теплоощущения человека.
Tes - Эффективная температура на солнце - температура, которую ощущает человек, с поправкой на солнечный нагрев. Характеристика знойности погоды. Зависит от высоты солнца над горизонтом, облачности и скорости ветра. Ночью, в пасмурную погоду, а также при ветре 12 м/с и более поправка равна нулю.
P - Атмосферное давление - приведенное к уровню моря атмосферное давление.
Po - Атмосферное давление - измеренное на уровне метеостанции атмосферное давление.
Tmin - Минимальная температура - минимум температуры воздуха на высоте 2 м над землей.
Tmax - Максимальная температура - максимум температуры воздуха на высоте 2 м над землей.
R - Количество осадков - Количество выпавших осадков за период времени, мм. При наведении курсора мыши на число - период времени, за который выпало указанное количество осадков.
R24 - Количество осадков - Количество выпавших осадков за 24 часа, мм.
S - Снежный покров - Высота снежного покрова, см. При наведении курсора мыши на число - состояние снежного покрова и степень покрытия местности в баллах.